Карточка аэропорта UNKL

Внимание!
Информация на этой странице в стадии наполнения.
Если вы не увидели какой-то информации, или заметили неточность - пожалуйста сообщите нам!
Спасибо!
Команда RU-STAFF
Название аэропортаЕмельяново
Название аэропорта (англ.)Yemelyanovo
Превышение942 ft. (287.1 m.)
Координаты56°10.386', 92°29.598'
Высота перехода7500ft
Эшелон переходаFL090
Коды ответчика5320-5377
Зона ОрВДКрасноярск РПИ (UNKL)
Данные METARUNKL 291100Z 25005MPS 4200 -SHSN SCT025CB M06/M09 Q1024 R29/450242 NOSIG RMK QFE742
Проноз погоды (TAF)UNKL 290753Z 2909/0109 23008G18MPS 6000 -SHSN BLSN BKN016CB TEMPO 2909/2912 0500 +SHSN BLSN VV003 BECMG 2912/2915 25003G08MPS NSW
NOTAMshow/hide NOTAM
AWOS   TABLE

Информация о ВПП

ВПП Длина ВПП (м.) Покрытие Курс ВПП Частота ILS
113700Асфальтобетон109110.5
293700Асфальтобетон289111.7

Диспетчерские позиции

Позывной Наименование органа УВД Частота
UNKL_TWRКрасноярск-Вышка118.3
UNKL_GNDКрасноярск-Руление121.9
UNKL_R_APPКрасноярск-Круг122.0
UNKL_APPКрасноярск-Подход127.7



Спутниковое изображение